Wind_Speed
4 7 7 7 8 7 8 10 6 2 5 2 4 4 5 5 4 3 2 3 5 5 6 8 9 8 6 5 5 4 2 2 4 5 6 6 5 6 7 7 7 7 7 10 14 15 16 17 18 20 20 20 22 23 25 26 28 30 30 30 33 34 32 32 33 33 33 32 32 32 33 37 37 35 35 36 37 37 38 37 36 36 36 35 35 35
3 7 8 8 6 4 5 7 5 2 1 2 1 4 5 5 4 2 3 3 2 2 4 5 7 9 6 5 5 4 4 5 5 6 7 6 6 5 6 8 9 8 6 7 10 14 16 15 14 16 16 16 18 20 21 23 26 28 27 29 33 32 30 32 34 34 34 36 36 34 35 37 34 33 34 36 36 36 37 36 36 36 36 36 36 37
2 3 4 5 5 5 4 4 5 5 5 2 1 2 2 3 2 1 1 1 2 1 2 2 5 8 6 6 6 5 6 6 6 7 8 7 6 6 6 7 8 9 9 8 8 10 14 16 16 16 16 15 15 17 19 20 23 24 26 29 32 32 31 33 33 33 36 38 37 36 35 33 31 31 33 34 34 33 35 36 36 36 37 38 38 39
2 1 2 5 6 6 5 4 5 3 3 2 1 2 2 2 3 1 1 1 2 0 1 0 4 6 5 5 6 8 9 8 8 9 8 7 7 8 7 6 6 8 9 10 10 9 11 15 17 17 16 15 13 15 17 18 20 22 24 27 30 31 32 33 33 34 36 36 34 34 33 31 28 28 28 28 30 31 33 35 35 36 38 38 39 39
2 2 1 5 6 6 4 3 5 3 1 1 1 2 1 2 2 1 1 2 2 2 2 3 4 6 5 7 8 8 8 8 7 7 7 7 7 7 7 6 7 8 9 10 11 11 10 11 14 15 15 14 14 17 18 19 20 21 23 25 27 29 30 32 32 34 34 32 30 29 27 26 25 25 24 24 29 33 34 35 36 37 38 37 38 38
1 2 3 5 5 5 5 4 4 4 1 0 2 5 4 2 1 3 4 4 1 2 2 2 3 5 3 6 8 6 6 6 4 4 7 8 7 6 6 8 8 8 8 8 10 12 11 12 15 17 16 14 15 18 20 20 20 21 23 24 26 27 28 31 32 33 32 30 30 28 25 25 25 25 26 29 35 37 35 36 37 36 36 36 36 36
1 3 4 5 4 5 6 2 3 4 3 1 3 5 7 5 4 4 4 3 0 2 2 2 3 4 2 1 4 4 4 5 4 5 7 7 7 7 7 8 8 8 7 7 8 9 10 12 13 16 18 17 17 20 20 19 19 20 21 22 24 26 28 30 31 31 30 30 30 30 30 30 28 27 30 35 38 37 35 34 35 34 34 34 34 34
1 3 5 5 5 4 4 1 2 4 6 1 3 3 7 7 6 6 5 4 3 2 2 1 2 4 5 3 3 5 5 6 5 6 7 7 8 8 8 8 7 8 7 6 7 7 8 10 13 16 20 21 21 22 22 20 20 20 20 21 22 24 26 28 29 30 29 30 31 32 33 32 32 31 34 37 36 34 32 31 32 33 32 32 32 32
2 2 3 5 5 2 2 3 4 5 5 2 1 3 5 5 4 5 5 4 3 2 2 3 4 2 6 4 2 3 4 6 7 7 8 9 8 8 8 8 8 9 7 5 6 7 8 12 17 19 21 24 25 25 24 23 21 20 19 19 20 21 23 25 26 28 29 30 31 32 32 32 33 34 36 36 32 30 29 28 30 31 31 31 31 31
1 2 4 4 4 3 4 4 5 6 3 3 2 6 5 5 4 3 3 3 3 3 4 5 6 3 5 3 1 1 2 5 6 6 8 8 7 8 8 8 7 6 5 6 6 6 9 14 18 21 24 27 29 29 29 29 28 26 23 20 18 19 20 22 24 26 28 29 30 32 31 32 33 34 34 33 31 30 29 28 29 30 31 31 30 30
2 1 1 3 2 4 4 1 2 4 4 2 4 5 5 4 4 3 2 2 2 3 4 6 8 4 4 2 2 2 3 4 4 4 6 6 6 8 7 5 5 6 6 7 7 8 12 17 20 24 26 27 29 32 33 32 32 31 30 26 23 22 21 20 22 24 26 27 28 31 32 32 33 33 31 29 29 31 30 29 30 31 32 31 31 30
5 4 1 1 0 2 4 4 4 3 4 4 4 3 3 2 2 2 2 2 2 4 3 5 8 6 4 4 1 3 4 3 4 4 4 5 6 5 4 5 6 6 6 7 8 8 10 15 19 23 25 26 29 31 32 33 33 33 32 30 28 27 26 23 21 21 22 24 26 28 31 32 33 33 32 29 30 32 31 30 30 31 30 30 30 29
3 2 2 3 2 2 5 4 3 5 4 4 3 4 3 1 2 1 1 1 2 4 2 4 7 4 6 7 4 8 11 6 5 5 5 6 6 3 6 6 6 6 7 8 7 7 8 9 13 18 22 24 27 29 31 32 33 33 32 31 30 28 28 27 24 22 20 19 22 24 27 29 30 31 31 30 31 32 31 30 28 29 29 29 29 29
2 5 3 2 3 0 5 4 2 1 2 4 3 3 3 2 1 1 2 1 1 4 3 2 4 0 5 5 3 8 12 7 3 4 4 4 2 4 6 6 7 8 7 6 6 8 8 8 11 16 19 22 25 29 31 32 33 33 32 31 30 29 28 27 26 25 22 18 16 18 21 25 27 28 29 29 30 30 31 30 29 29 29 29 30 30
2 3 3 2 2 1 4 4 5 4 3 3 3 4 3 3 3 3 3 1 2 3 4 1 2 2 3 2 2 5 6 4 5 3 4 6 6 6 7 7 8 7 6 6 6 7 8 10 14 16 19 21 25 28 31 32 33 34 33 32 30 29 28 28 27 26 25 22 19 15 15 17 21 24 26 27 28 29 30 30 29 29 29 30 30 31
3 2 5 3 2 2 4 3 4 6 2 1 1 4 1 2 4 2 3 4 3 1 3 1 2 3 4 3 2 0 2 6 7 6 9 9 7 7 7 7 7 7 8 8 8 8 9 12 17 18 20 23 25 28 30 31 33 33 33 33 32 31 30 29 28 27 25 23 21 19 17 15 14 16 19 21 24 25 27 29 29 28 29 29 29 29
2 2 4 4 2 1 2 2 2 3 1 0 2 3 1 0 5 3 2 2 3 1 2 3 2 3 3 5 5 6 7 7 7 8 8 7 7 8 7 6 7 8 8 8 7 7 9 14 18 20 22 24 26 28 30 31 33 33 33 33 34 36 35 34 32 30 27 25 23 21 20 18 16 14 14 16 18 20 22 23 24 25 25 25 25 25
3 1 3 1 1 2 1 2 4 3 3 4 1 3 1 3 4 3 1 1 2 2 2 3 4 2 1 3 4 7 8 7 6 6 6 6 7 8 8 7 8 8 8 8 8 8 10 14 19 22 24 27 28 29 30 32 33 34 34 34 34 36 37 37 36 34 32 29 27 24 22 20 18 17 15 14 14 15 17 18 19 19 19 19 19 20
3 2 4 1 2 3 4 4 3 4 3 4 2 2 3 1 1 2 1 1 1 3 2 2 4 3 3 3 3 5 4 5 5 5 6 7 8 8 8 8 9 9 10 10 10 9 10 14 20 24 27 30 32 32 33 34 34 35 36 36 35 36 36 35 35 35 34 32 30 27 25 23 21 19 18 16 15 14 14 14 14 15 15 14 14 14
2 3 2 3 1 2 4 3 1 1 3 3 2 2 2 2 3 2 2 2 2 2 2 3 2 2 4 4 1 2 1 5 4 5 6 8 9 8 7 7 8 9 9 8 9 9 10 15 21 25 27 30 32 33 34 35 35 35 36 36 37 37 37 36 35 35 34 33 32 30 28 26 24 22 21 19 17 16 14 13 12 11 11 11 10 10
2 3 1 4 3 1 1 0 2 3 1 1 1 1 1 0 1 0 0 2 3 2 1 3 2 3 5 3 5 5 3 5 6 8 8 8 8 7 7 7 7 8 8 9 10 10 11 18 24 27 29 30 30 31 33 34 34 35 35 36 36 37 38 39 39 38 37 35 34 33 31 27 25 23 21 18 16 15 13 11 10 10 10 10 10 10
2 2 2 1 3 1 1 1 1 1 3 4 2 2 2 2 1 0 2 1 2 2 3 3 3 5 4 3 4 4 4 5 7 7 7 7 7 7 7 7 8 9 10 11 11 11 14 19 24 27 29 31 31 32 33 34 34 35 36 36 36 36 38 39 39 40 39 36 34 33 30 27 24 21 18 15 13 11 11 10 10 10 11 11 11 12
1 3 2 0 1 1 2 2 2 2 2 5 2 1 2 2 2 2 2 1 1 0 1 2 2 5 3 1 3 3 4 4 5 6 6 6 7 9 10 10 10 11 12 12 12 12 15 20 23 25 28 30 31 31 32 33 34 34 35 36 37 37 38 38 38 40 39 37 35 32 29 26 23 19 16 13 10 8 7 7 8 10 11 12 13 14
2 2 3 2 3 3 4 3 2 2 4 5 2 2 2 2 2 2 2 1 1 1 1 1 3 5 3 2 4 2 2 3 5 7 8 8 8 10 12 12 12 11 12 12 11 12 16 20 22 24 25 27 28 29 29 31 33 34 34 36 36 36 38 38 38 39 39 37 36 33 30 28 26 23 21 18 16 12 9 8 8 9 10 12 13 14
2 1 2 2 3 4 5 5 5 4 3 3 2 3 3 3 3 2 1 1 1 4 4 3 3 5 4 3 4 7 9 8 8 10 10 10 9 10 10 11 11 10 11 12 12 13 15 18 20 22 23 25 26 27 28 29 31 33 33 35 35 35 37 37 37 39 38 36 36 34 33 31 30 29 27 25 23 20 16 13 10 10 11 12 13 14
2 1 3 4 3 1 1 2 2 3 3 1 2 4 4 5 4 2 0 0 2 3 2 3 5 6 6 8 9 11 13 13 13 13 11 10 9 9 8 9 9 10 11 12 12 12 13 15 18 21 22 23 25 28 28 28 30 32 34 35 35 35 36 35 35 37 35 34 35 34 34 34 34 33 32 30 27 24 22 19 15 13 12 12 13 14
3 3 2 4 5 4 3 4 3 1 1 1 3 4 3 3 3 1 1 2 2 2 2 4 5 8 12 12 8 10 11 11 12 13 11 9 9 8 7 7 8 8 9 11 11 12 13 14 16 19 22 23 25 28 28 28 31 33 35 36 37 37 37 36 35 35 33 32 33 34 35 36 35 35 33 32 30 27 25 23 21 18 15 14 14 14
4 4 4 2 2 2 2 3 2 2 1 2 2 3 3 3 3 1 2 3 1 3 5 5 2 4 14 10 8 9 8 8 9 11 10 8 7 6 6 7 9 10 10 11 11 12 13 13 15 20 23 24 25 27 28 29 31 33 34 36 37 38 37 36 35 34 33 32 33 33 34 35 35 35 34 33 31 28 27 25 24 22 19 17 15 15
5 2 3 2 2 3 2 3 1 0 1 2 1 2 2 1 0 2 4 4 2 2 9 6 1 6 12 8 9 6 6 6 6 8 7 6 6 8 8 9 10 11 11 12 12 11 11 11 13 18 23 26 28 29 29 29 29 31 33 35 36 38 38 36 34 32 32 33 33 32 33 34 34 34 34 33 32 29 28 27 26 24 22 20 18 16
4 1 1 1 3 5 4 3 1 2 2 3 2 2 2 3 4 5 6 6 5 8 12 10 9 9 5 6 5 4 5 4 5 6 6 6 7 8 9 10 10 10 10 11 11 11 10 11 13 17 21 24 27 30 31 32 31 32 32 32 34 37 38 37 35 33 32 32 32 32 33 33 33 33 33 32 31 30 29 28 28 27 25 24 22 20
3 2 1 3 3 5 6 3 4 4 3 3 5 6 5 6 5 5 5 4 5 8 9 9 11 7 2 5 5 4 4 5 7 9 9 7 5 6 8 8 9 10 10 10 10 10 11 12 15 19 20 22 24 26 28 30 33 34 34 33 33 33 33 32 32 33 33 33 32 32 32 32 32 32 31 31 31 30 30 29 29 28 28 27 27 25
3 2 2 4 4 5 6 4 4 4 5 6 8 8 6 5 3 3 3 3 4 5 5 5 5 3 3 6 6 5 6 8 8 9 9 7 4 3 5 7 8 9 10 10 10 10 10 12 15 19 21 23 25 26 27 28 30 32 33 33 34 34 32 28 27 29 31 31 31 31 32 32 31 30 30 30 31 30 30 30 29 29 29 30 30 29
2 2 1 3 2 4 5 4 4 5 6 5 6 3 4 4 2 3 3 1 1 2 3 2 1 2 4 7 8 9 10 9 8 7 8 9 5 2 4 6 6 7 8 9 10 10 10 12 15 19 22 24 26 27 29 29 29 29 29 31 32 33 31 29 28 28 28 28 29 30 31 31 31 30 30 29 29 29 29 28 28 28 29 30 31 31
2 3 2 1 0 2 4 5 5 4 3 4 3 1 1 3 2 3 1 2 3 3 2 0 1 4 7 8 10 11 10 10 9 6 8 9 4 1 4 6 6 8 9 9 9 9 12 15 18 21 23 25 26 28 30 30 29 30 30 30 31 30 28 28 28 28 28 27 27 29 29 29 30 31 31 29 28 28 27 26 27 27 28 29 30 31
1 2 2 1 1 1 2 4 4 2 5 6 2 3 2 3 2 2 3 4 4 5 5 4 5 7 8 8 9 9 10 11 8 6 10 8 2 1 6 8 9 10 10 9 8 10 13 16 18 21 24 25 27 29 31 31 30 31 32 31 31 30 28 27 27 27 26 26 27 29 29 29 30 31 30 29 28 27 26 25 25 26 27 28 28 29
3 2 1 1 1 1 1 1 1 4 6 5 4 5 3 1 2 3 4 2 3 4 6 7 7 8 9 10 9 9 11 12 7 5 6 2 3 1 8 10 11 11 10 11 12 13 15 17 18 21 22 24 27 28 29 30 29 31 33 32 30 29 28 26 26 26 25 25 27 32 32 31 31 31 30 29 28 27 25 25 25 26 27 28 28 28
4 3 2 1 1 2 1 2 2 4 5 4 3 3 2 1 1 1 0 0 1 3 6 8 10 11 12 12 11 12 13 12 9 4 1 2 5 10 14 15 14 13 14 17 18 18 19 18 18 20 21 22 25 25 26 28 28 29 32 31 29 28 27 26 25 24 24 25 28 33 35 33 31 31 30 29 29 27 25 24 25 26 26 27 28 28
5 3 3 1 1 3 2 2 3 3 3 1 1 4 4 3 3 2 1 1 1 5 8 9 10 11 11 11 11 12 12 11 9 4 2 5 11 15 18 20 20 19 21 23 23 22 21 20 19 19 20 20 22 23 23 25 26 27 28 28 28 28 27 25 24 23 25 29 32 34 34 33 30 29 29 29 27 26 25 25 24 25 25 24 25 27
4 3 2 1 1 2 1 2 2 3 2 2 2 5 7 5 1 1 1 1 1 5 8 8 9 9 9 9 10 10 9 9 9 5 5 9 14 15 15 18 21 23 25 27 27 25 24 23 21 21 21 20 21 22 22 23 25 25 24 25 26 25 25 24 24 24 28 31 32 32 33 32 29 27 27 25 24 24 25 25 23 23 23 21 21 23
2 1 2 3 3 3 3 3 3 2 0 3 1 5 8 6 2 0 2 1 2 6 6 5 7 7 7 8 8 7 6 8 10 10 9 12 16 18 18 18 19 22 25 26 27 26 25 25 24 23 23 22 22 23 23 23 23 22 22 24 24 23 23 23 24 29 33 33 31 31 32 31 27 24 23 23 23 24 23 23 22 21 21 20 19 20
3 1 1 1 2 4 5 4 3 2 1 2 2 5 6 5 1 1 3 2 4 6 5 4 6 7 8 8 7 6 6 8 11 14 14 15 16 18 22 23 23 24 25 25 26 24 23 24 24 25 26 25 23 23 24 23 22 21 21 22 22 22 23 23 27 33 35 34 33 33 31 28 24 23 23 22 22 23 22 21 21 20 20 19 19 18
1 1 1 0 1 2 2 2 3 3 1 0 3 4 3 2 2 3 3 2 4 5 4 5 7 7 8 9 8 8 10 11 13 15 16 15 14 15 20 24 24 25 25 25 23 21 20 21 23 26 28 27 24 24 24 22 21 22 20 18 19 22 23 25 30 33 32 32 35 33 29 26 23 23 23 23 22 22 23 21 20 19 19 19 19 18
2 1 1 2 2 0 1 1 2 3 2 1 2 4 3 1 3 4 4 3 3 4 5 6 6 6 8 10 10 11 13 14 15 15 15 15 15 16 20 23 24 25 24 21 19 18 18 18 21 24 27 27 25 24 23 22 21 21 19 17 19 22 23 26 31 33 32 33 33 29 27 26 24 23 22 22 22 22 22 21 20 19 18 18 19 18
2 3 2 2 1 2 2 3 3 3 3 1 1 1 1 2 3 4 4 3 3 4 5 6 6 7 8 10 11 12 13 13 14 14 15 16 16 17 21 23 24 23 20 17 18 19 17 17 19 22 25 27 25 24 23 21 20 20 19 20 22 22 22 25 29 31 33 34 30 26 25 24 23 23 23 22 22 21 21 20 20 18 17 17 17 16
3 2 3 2 2 2 4 5 4 3 4 2 2 3 5 5 5 4 4 4 4 3 4 5 8 9 8 9 11 12 12 13 14 15 16 16 16 17 21 23 23 22 20 20 21 19 17 17 18 20 24 26 25 24 22 18 17 19 22 22 21 19 20 25 30 31 32 33 30 27 26 24 22 22 22 22 21 20 19 20 19 18 16 15 14 14
2 1 3 1 2 3 4 5 2 1 2 3 2 3 4 4 4 4 3 4 4 4 5 6 8 9 8 8 9 10 12 14 15 15 16 15 15 18 21 22 23 23 23 22 21 17 16 17 18 19 22 24 24 21 18 15 16 19 21 20 17 18 22 30 32 29 27 28 29 29 26 24 21 21 21 21 20 18 18 18 18 18 17 14 13 13
2 2 2 2 3 4 3 2 1 1 4 5 4 4 4 3 4 3 3 4 5 6 6 6 6 8 8 8 8 10 12 14 15 15 15 13 14 17 21 22 22 23 23 22 18 15 15 17 19 19 20 21 21 18 15 16 19 21 19 18 18 21 27 32 30 24 23 26 28 27 24 22 21 21 21 21 20 19 18 18 17 17 16 15 14 14
1 1 0 3 5 3 2 3 5 6 6 6 4 4 4 4 5 4 4 5 6 6 6 6 7 7 8 9 9 10 12 14 15 15 15 14 15 20 23 23 22 22 23 21 16 14 15 16 18 19 20 20 19 16 15 19 22 21 18 19 21 24 29 31 26 22 24 27 25 23 22 21 20 20 20 21 21 20 20 20 19 18 17 16 15 15
3 1 3 3 3 3 5 6 6 6 6 5 5 5 5 5 5 5 5 5 5 5 6 8 8 8 9 10 10 11 13 14 14 14 14 13 15 19 22 22 21 21 20 17 14 15 16 16 16 18 20 19 18 16 18 21 22 21 19 20 22 25 28 28 24 22 25 26 21 20 21 21 20 20 20 21 21 21 21 20 19 19 20 20 17 15
3 4 4 2 2 4 5 4 3 3 5 5 5 6 5 3 2 3 3 4 5 5 5 7 9 11 13 13 12 11 11 11 12 13 13 12 14 17 19 20 21 22 18 15 15 17 18 16 16 18 19 20 18 17 19 21 22 21 20 19 22 26 27 26 23 21 23 22 20 20 21 21 21 21 21 20 21 22 24 23 19 17 18 20 18 16
5 5 4 3 5 6 5 5 4 3 4 5 5 6 3 2 2 1 2 4 5 5 4 5 7 10 12 13 13 10 8 9 12 12 12 13 15 17 19 19 19 20 18 15 15 18 19 19 19 19 20 22 20 18 19 20 22 22 20 19 23 25 26 24 23 21 21 20 20 21 21 21 22 22 21 20 20 21 22 24 24 20 17 15 16 16
Wind_Direction
152 160 181 202 206 194 184 195 194 76 32 74 151 174 183 199 221 158 185 235 172 183 221 217 241 254 243 245 236 238 271 257 253 266 267 263 274 286 288 289 288 273 258 269 278 276 273 283 294 293 289 281 271 264 256 251 251 250 248 245 247 248 244 240 238 236 234 233 234 233 234 238 240 240 242 245 246 247 249 251 252 254 255 256 257 257
135 175 195 207 195 163 171 186 189 177 78 44 131 188 191 195 214 199 201 223 148 198 235 215 239 257 255 257 252 242 257 255 232 239 258 254 252 263 276 286 289 286 277 272 277 279 281 284 288 290 290 282 276 272 262 255 256 254 248 247 251 250 244 243 241 236 235 236 235 234 236 239 239 240 242 245 247 249 251 252 252 253 255 256 257 258
150 195 185 173 137 89 82 148 176 217 211 194 163 168 194 182 178 297 248 168 107 206 246 232 246 258 258 247 243 233 235 245 229 226 242 247 248 253 255 265 278 289 295 289 277 275 281 287 288 286 284 283 282 279 271 264 263 257 251 252 254 251 247 248 245 239 241 242 239 237 239 241 241 243 246 249 252 253 254 255 254 255 256 256 257 258
153 271 169 135 111 90 63 98 140 200 224 200 141 161 205 161 149 249 268 65 43 297 189 310 280 264 260 263 255 240 235 240 235 232 240 243 244 252 257 260 264 274 285 290 289 283 279 282 286 286 287 292 290 283 278 271 267 262 258 258 259 254 250 250 247 245 247 245 242 241 242 243 245 249 251 253 255 255 256 256 255 257 257 256 257 257
106 353 75 106 104 126 123 102 118 130 216 132 120 198 185 102 125 143 37 4 357 336 50 40 307 275 233 234 249 245 234 237 239 239 254 258 250 254 271 272 256 254 266 278 286 288 286 284 288 292 296 300 295 291 291 287 281 275 272 270 267 261 256 255 253 252 251 244 241 241 240 240 242 246 247 247 251 251 251 253 255 258 258 256 257 256
68 356 44 86 99 132 137 139 151 154 181 264 186 189 164 144 163 103 64 23 7 262 5 46 274 272 214 213 242 252 241 245 248 244 253 263 264 259 265 265 256 249 248 255 270 282 292 296 299 303 310 315 313 312 312 308 301 294 289 285 279 273 267 264 262 258 251 243 239 235 231 230 231 235 236 237 245 247 247 251 256 258 258 256 257 257
329 14 63 88 89 104 115 135 204 163 140 260 240 188 169 172 183 143 103 56 97 243 348 29 242 274 321 215 234 248 264 270 260 252 256 257 259 254 248 254 256 257 254 249 257 269 284 299 314 323 334 344 340 335 332 326 319 311 303 297 289 284 277 273 269 262 253 245 240 234 231 232 230 232 237 241 246 249 249 253 256 258 259 259 259 259
35 50 75 88 68 81 115 119 229 144 128 246 288 171 164 164 171 171 151 151 188 229 311 282 209 272 288 258 209 205 239 269 259 254 260 252 251 250 250 255 257 262 265 265 275 288 304 330 348 345 344 350 350 347 345 340 334 326 317 310 301 292 284 279 274 266 257 249 243 238 235 236 236 237 243 248 250 251 252 253 256 260 261 261 262 262
65 113 143 115 84 97 160 177 184 141 126 235 302 103 142 145 149 164 156 160 170 178 244 201 153 243 271 254 239 198 208 251 255 245 251 252 254 257 258 261 262 266 278 301 320 331 343 354 357 354 356 3 8 8 5 2 358 350 339 326 315 304 294 286 279 270 260 253 248 243 238 237 240 241 246 250 252 254 255 255 258 261 262 263 263 263
49 165 174 128 115 180 204 202 176 145 141 207 120 77 73 70 70 101 137 144 146 186 232 193 162 223 268 229 185 59 196 240 247 242 248 254 259 261 263 266 276 300 331 354 3 2 4 5 6 12 19 20 20 20 19 19 18 14 7 354 337 325 313 301 290 278 267 258 251 245 241 239 242 244 247 250 253 255 256 258 259 261 263 263 264 264
342 331 139 111 138 189 182 139 112 133 130 101 75 60 52 56 57 57 75 104 146 232 242 190 172 193 274 249 173 171 203 212 229 252 260 264 264 264 273 298 341 3 2 5 17 20 22 26 26 27 25 20 17 17 17 17 15 15 14 9 3 355 344 325 306 291 277 265 255 247 244 242 244 246 247 248 251 254 255 256 258 261 263 264 264 265
358 4 349 306 266 128 99 59 32 56 86 77 69 80 71 31 43 62 38 66 162 247 252 182 168 172 235 269 271 269 267 211 215 255 262 260 265 276 321 5 18 21 19 22 29 29 32 33 28 25 20 14 12 11 11 11 10 10 10 8 7 6 3 353 334 312 292 275 262 255 250 247 246 247 247 247 250 253 254 255 257 261 263 263 264 264
356 321 297 316 306 117 94 76 37 24 47 85 86 86 85 18 19 92 171 109 203 260 284 156 152 165 236 253 266 277 280 267 237 249 252 256 272 333 18 25 28 37 43 43 42 36 33 29 22 19 15 10 8 6 5 5 5 5 6 7 5 4 4 3 357 345 324 296 275 265 259 255 252 251 250 250 252 254 256 257 258 260 262 263 264 264
327 316 329 351 310 210 114 118 124 36 101 132 134 122 120 126 80 220 211 93 238 269 321 113 138 189 278 266 239 254 272 288 296 275 271 282 334 49 52 52 53 52 52 46 42 38 30 24 19 15 11 6 3 1 1 0 0 360 2 3 2 2 3 4 4 1 354 337 310 286 273 265 261 258 256 256 257 259 260 260 260 261 262 262 264 265
139 320 288 196 271 219 139 157 163 140 135 166 165 137 138 156 158 193 196 169 237 278 330 12 141 191 236 226 169 222 264 343 12 359 43 51 63 80 71 60 54 45 39 35 35 36 28 21 16 11 7 3 360 358 357 357 356 356 356 357 356 357 1 3 4 4 3 0 351 334 309 288 274 267 264 263 263 264 265 266 266 265 265 265 266 268
118 259 265 267 281 166 160 195 142 105 93 248 135 108 132 184 143 156 191 166 168 296 327 287 216 228 227 262 306 246 357 26 32 39 61 62 61 70 60 47 45 34 26 22 20 21 18 16 13 8 2 359 357 356 355 354 354 353 353 353 352 352 355 358 1 2 3 2 2 360 351 335 313 292 281 277 275 274 273 272 271 270 270 270 271 272
102 265 295 326 321 170 172 207 115 102 170 210 106 139 206 102 112 124 260 141 115 276 263 175 228 294 302 304 334 47 49 36 39 45 55 56 51 57 51 37 33 27 21 18 16 12 7 7 5 2 359 356 354 353 352 353 353 352 352 352 351 351 352 353 354 357 359 358 358 1 1 358 349 332 314 300 293 289 284 280 278 276 276 276 275 276
130 203 314 24 133 296 300 106 61 46 116 113 152 190 142 29 76 105 256 21 82 254 243 161 200 271 331 282 329 38 51 37 35 40 43 45 46 46 37 25 22 19 15 13 14 8 3 3 360 357 356 354 353 352 352 353 354 355 355 354 353 351 350 350 350 351 352 352 351 352 354 356 354 349 339 324 311 302 295 291 289 287 287 287 286 285
100 109 309 337 142 314 349 79 54 5 64 119 176 176 108 86 57 96 164 187 191 237 269 226 212 220 204 223 318 358 39 54 36 32 39 36 33 34 26 19 14 12 11 8 5 2 0 359 356 354 353 353 354 355 355 356 358 359 359 358 356 353 351 350 350 348 347 346 345 344 343 344 345 345 341 334 325 317 311 307 304 301 298 297 297 294
64 115 289 298 227 322 7 56 161 314 5 45 65 39 58 134 161 156 157 148 159 201 273 290 256 238 235 211 193 290 127 96 60 30 37 32 26 24 20 16 13 11 8 1 357 356 355 356 358 359 358 357 358 359 360 1 2 3 4 3 2 359 357 354 352 349 345 341 340 339 337 336 336 337 334 330 325 321 321 321 318 314 311 311 311 308
356 94 174 295 326 8 52 20 187 173 166 84 76 18 347 87 131 82 355 123 126 141 210 266 271 267 256 196 165 190 151 90 52 33 30 23 22 20 14 11 6 7 5 2 3 1 1 3 5 6 5 4 4 3 3 3 4 4 4 5 4 3 2 358 355 353 349 344 341 338 335 332 331 331 329 327 324 321 322 325 326 327 328 333 336 334
1 88 135 295 2 27 228 300 335 203 164 146 149 189 184 164 114 312 271 192 113 137 173 200 247 264 253 190 170 168 102 54 36 45 34 9 9 11 9 5 2 9 14 14 15 13 11 11 9 7 6 5 4 3 2 3 3 1 360 0 0 1 0 358 355 355 352 350 349 346 342 336 331 328 325 324 327 328 331 336 337 336 336 338 338 336
73 101 81 358 214 211 280 291 305 287 138 119 108 151 165 146 112 144 220 224 73 177 155 150 227 264 269 129 99 70 67 46 40 59 45 11 6 6 7 14 19 23 22 19 19 16 13 11 8 7 6 6 4 1 1 1 1 359 357 357 356 356 356 355 353 353 353 352 353 354 353 349 343 338 334 331 329 326 327 331 332 331 329 329 328 326
52 87 68 332 299 328 334 323 333 13 79 90 52 25 91 120 121 145 184 153 110 236 204 168 237 262 296 71 93 66 51 70 56 42 28 18 17 15 17 22 27 27 20 17 16 12 10 9 8 8 6 3 1 359 358 358 358 357 356 355 354 352 352 353 352 351 352 352 352 354 355 355 353 350 349 346 341 334 325 315 314 316 317 318 319 318
32 59 97 61 0 353 350 347 346 350 29 73 18 4 51 60 60 79 93 76 218 222 197 192 245 254 279 347 22 13 8 15 23 25 27 28 24 22 23 20 17 18 15 12 11 7 7 8 7 5 2 359 358 356 354 354 354 355 354 353 351 349 349 351 351 351 351 350 350 350 349 350 350 349 349 348 346 343 338 328 317 312 312 311 312 313
96 60 92 106 116 170 247 273 268 305 341 15 10 11 29 31 28 35 53 351 249 243 174 187 250 273 302 324 350 14 8 360 4 13 24 34 26 17 20 19 12 13 12 9 9 7 5 5 4 2 360 357 355 353 351 349 349 350 350 351 351 348 347 348 349 350 351 349 348 346 345 345 345 345 344 342 341 340 338 335 327 319 314 309 308 309
106 55 64 131 153 174 181 208 224 43 30 294 327 352 11 22 22 82 138 213 231 353 330 244 260 299 300 307 352 25 11 359 2 4 9 21 20 12 13 15 12 12 11 7 7 5 2 1 0 358 357 355 353 351 349 347 346 347 347 348 349 348 347 346 346 348 348 347 347 345 343 342 342 341 340 338 337 335 333 333 330 326 320 311 307 306
96 38 11 92 146 216 189 227 279 48 111 235 285 341 12 31 24 83 191 230 82 35 286 242 134 293 284 304 30 37 6 1 3 358 359 2 3 4 6 10 12 10 8 6 6 4 359 356 353 352 352 351 350 349 348 346 345 345 344 344 345 346 346 345 344 345 345 345 345 344 342 341 339 338 337 335 334 332 331 331 330 329 327 320 312 307
102 36 350 55 351 312 271 271 291 111 263 278 343 340 356 45 333 215 229 233 135 190 253 253 125 263 281 337 41 40 5 359 348 342 343 341 352 1 3 9 12 7 3 1 360 359 356 351 349 347 346 346 346 346 345 344 343 343 342 341 343 344 345 344 343 343 342 342 342 342 341 340 338 336 336 335 333 331 331 332 332 332 331 328 323 317
98 5 326 100 354 326 300 299 26 74 351 350 352 313 281 248 247 245 249 238 203 231 254 271 280 272 296 11 14 9 1 335 316 331 342 348 359 1 359 2 3 1 1 357 351 350 349 347 344 343 343 344 344 343 341 339 339 338 337 338 340 341 343 343 342 341 340 340 339 338 339 339 338 337 336 336 335 333 332 333 333 334 334 333 331 327
50 7 355 79 26 324 311 347 45 52 10 322 288 266 252 268 278 263 255 238 219 243 258 266 272 274 24 15 334 338 349 340 345 349 346 346 352 354 352 352 353 354 354 351 348 346 343 341 341 340 340 340 339 338 337 335 334 333 333 334 335 337 339 339 338 337 336 336 336 337 338 338 337 337 337 337 336 335 334 333 334 335 335 335 334 331
36 32 1 49 43 306 306 8 21 352 340 308 288 271 243 246 265 244 235 208 200 242 272 282 283 297 348 340 334 341 349 353 350 340 334 328 328 348 344 340 345 347 345 346 346 344 340 338 337 336 334 333 334 334 333 331 329 328 328 329 331 333 334 333 332 331 331 333 334 336 338 337 335 336 336 336 336 336 335 335 335 337 338 337 335 333
79 89 32 45 42 284 298 360 5 353 348 310 285 263 216 219 256 270 271 307 15 312 305 296 296 315 323 335 344 345 348 347 334 327 325 313 303 323 326 324 332 333 338 344 340 337 335 331 330 329 327 328 329 329 329 328 326 323 323 324 325 328 329 327 327 327 327 329 332 335 336 336 335 333 333 334 334 334 335 335 335 338 338 337 334 332
123 108 122 138 127 274 303 350 1 1 325 266 238 132 216 238 266 294 329 33 17 12 32 97 339 342 345 350 343 335 333 326 316 308 296 288 277 308 315 314 322 328 338 340 330 325 324 322 324 324 323 324 325 326 327 326 324 322 322 322 323 325 325 323 323 325 325 327 330 332 333 334 334 332 331 331 331 330 331 331 331 334 336 335 332 330
174 110 108 149 176 266 329 8 4 306 246 246 277 22 316 236 180 115 91 65 30 29 36 21 354 347 346 338 325 318 314 312 305 278 278 282 214 206 309 321 331 335 335 327 318 315 314 315 317 319 320 321 323 324 326 326 325 324 322 323 323 323 323 321 320 322 323 324 327 330 332 331 331 331 329 329 329 327 326 326 326 329 331 331 329 326
194 160 128 153 187 263 344 81 213 244 256 275 326 360 1 18 58 78 91 68 21 31 28 7 347 339 336 330 326 326 320 318 313 277 275 292 113 314 322 332 332 327 321 317 316 312 309 309 310 311 314 316 319 322 323 323 323 323 321 322 322 321 321 320 319 321 323 322 325 330 332 330 329 328 327 327 326 323 321 321 322 325 327 327 324 323
191 155 140 198 204 159 185 230 247 285 305 315 329 337 341 341 331 338 112 108 358 15 15 1 346 340 340 338 337 336 329 324 328 323 322 52 13 337 331 328 320 313 313 315 314 310 308 309 309 308 309 312 315 319 321 321 321 321 320 320 320 320 320 318 318 320 321 321 322 327 330 330 327 325 324 324 323 320 317 316 319 323 325 323 322 321
196 180 153 178 183 143 162 286 308 313 311 328 338 314 296 248 205 198 213 196 23 6 1 355 345 339 339 338 335 336 333 323 319 329 5 351 342 335 327 319 314 312 313 315 315 312 312 313 312 310 309 310 311 315 319 318 318 318 317 316 318 319 318 317 318 320 321 320 320 323 327 328 325 321 320 319 317 316 314 313 316 321 322 320 318 317
176 208 199 222 231 160 184 241 258 276 254 128 41 332 314 299 232 136 234 220 32 357 351 349 341 334 333 331 330 333 332 316 304 313 344 335 328 323 314 309 308 308 310 311 310 310 311 315 317 315 314 313 313 316 319 318 316 315 312 313 316 317 315 317 319 320 320 319 317 319 322 323 321 318 316 313 310 311 312 311 312 316 318 316 314 314
82 224 222 228 229 238 259 256 255 279 190 124 46 318 309 310 345 44 272 279 3 346 345 350 337 325 321 322 324 324 321 306 300 309 323 320 313 309 305 302 301 302 304 303 303 304 309 315 318 317 317 317 317 319 321 318 314 310 308 312 314 313 313 314 314 317 320 321 319 318 319 321 319 313 310 307 306 309 311 310 308 310 312 312 312 313
9 341 256 248 233 238 248 253 262 265 133 121 295 297 303 315 354 210 251 287 339 334 341 343 326 320 317 318 318 312 300 292 294 302 310 310 307 307 305 303 302 302 302 299 299 302 308 312 314 314 314 316 319 321 322 320 314 307 307 310 309 308 311 311 312 319 324 324 324 323 321 320 315 308 306 308 308 308 310 310 307 305 306 307 306 307
339 347 338 154 206 231 217 227 279 285 148 110 305 314 334 336 204 224 262 297 312 316 325 323 315 315 312 309 305 299 296 296 297 300 304 306 307 305 305 306 307 306 304 300 299 303 309 311 311 311 312 315 320 321 322 321 314 308 309 307 304 308 311 310 316 325 325 323 326 328 325 321 313 306 307 310 311 310 310 310 309 306 304 302 301 301
179 176 268 211 180 134 89 147 284 282 226 239 326 353 21 69 227 273 304 304 298 311 318 314 311 313 311 306 302 301 301 301 301 301 303 306 307 306 307 307 306 304 303 302 304 308 311 309 307 308 310 313 318 321 323 321 314 311 311 308 306 311 312 313 321 327 326 325 327 326 323 321 314 308 308 310 312 312 309 308 311 310 307 303 301 300
208 181 218 232 187 121 141 197 218 201 190 173 53 42 216 223 247 277 291 287 298 312 311 308 308 305 303 303 303 304 303 302 304 307 308 307 307 308 308 306 304 303 306 311 313 315 314 309 306 307 308 311 317 321 321 319 314 311 312 312 313 314 313 318 325 326 327 330 328 321 319 319 312 310 312 313 314 313 309 309 311 311 310 309 304 301
250 180 166 221 238 174 190 223 227 167 162 157 140 183 219 246 253 237 233 257 285 294 296 307 309 308 310 311 309 308 307 306 308 309 308 308 308 309 309 308 310 313 316 317 315 314 314 311 310 310 309 312 317 320 319 319 317 314 313 316 318 317 318 325 327 326 328 330 328 325 325 319 311 311 314 315 317 316 312 312 313 311 310 310 306 302
271 125 126 175 278 282 253 247 241 149 200 235 227 216 231 245 239 226 239 272 290 299 304 309 309 312 320 320 313 309 307 308 309 307 306 307 307 308 310 312 315 317 317 317 317 318 320 319 316 315 313 314 319 322 320 321 322 318 315 317 319 319 322 328 329 326 324 325 325 329 328 319 312 315 316 315 317 316 313 314 313 311 310 310 309 308
286 116 119 190 254 287 286 243 198 252 275 290 302 305 303 280 253 258 287 290 291 296 304 314 318 316 316 314 310 307 305 307 308 306 307 309 310 313 316 317 317 318 317 318 323 331 332 328 323 321 320 319 321 322 321 324 328 325 320 319 320 320 324 330 332 324 319 322 324 325 324 318 314 316 316 316 317 316 315 315 313 311 311 312 315 320
181 108 254 217 217 234 266 277 285 284 281 282 276 271 278 275 272 279 281 281 290 300 306 314 318 315 312 312 311 309 306 305 305 305 309 313 314 316 317 317 320 321 319 320 329 340 341 334 328 325 323 321 321 321 322 328 331 331 326 323 322 323 328 334 332 321 320 325 323 318 317 317 316 316 316 317 317 315 315 315 314 311 310 310 313 319
131 238 249 207 217 273 288 287 292 297 294 288 274 260 250 244 259 281 287 292 305 313 311 311 310 307 305 307 310 310 307 305 309 315 317 316 314 314 315 318 322 321 320 325 335 341 341 338 331 327 324 321 320 321 324 328 332 334 331 325 324 328 333 334 329 320 322 327 322 315 317 318 317 316 316 316 317 315 313 312 311 307 308 311 315 316
143 233 235 206 264 268 254 241 238 272 288 280 268 264 252 220 220 276 295 305 306 305 307 312 313 311 308 306 308 308 305 308 318 323 317 311 313 316 317 320 321 319 321 330 336 336 338 338 333 327 323 321 321 320 322 326 331 334 333 327 327 331 334 334 328 322 322 324 320 318 320 319 318 319 319 318 318 317 316 316 314 307 305 310 316 318
193 220 197 199 247 252 246 236 219 231 265 258 251 260 253 146 134 242 279 292 291 302 324 323 313 311 309 308 310 311 310 315 320 319 312 310 315 318 319 321 320 318 320 329 334 334 334 334 332 328 324 325 323 319 319 323 328 333 334 330 330 334 335 334 329 323 320 321 320 320 321 320 320 320 319 320 320 318 317 319 320 319 314 311 315 319
Height
772 777 781 781 779 779 781 782 783 785 785 783 785 789 791 793 792 789 786 783 782 788 792 790 790 789 787 786 784 781 781 783 784 782 781 781 781 780 780 779 777 776 773 770 770 770 770 771 771 769 767 766 765 765 765 766 766 766 767 769 768 768 771 772 773 774 775 775 776 777 777 775 775 778 779 779 779 780 781 782 783 784 785 786 787 787
774 777 779 777 777 777 778 780 782 785 787 788 789 789 790 792 791 788 785 783 783 788 790 789 790 790 787 786 783 782 783 783 783 782 780 780 779 778 779 779 776 773 770 769 768 767 767 767 768 767 766 765 764 763 763 763 763 764 766 766 765 766 769 769 769 770 771 770 770 771 771 771 773 775 775 775 776 777 778 779 780 780 781 782 782 782
777 778 777 776 776 778 779 780 783 785 787 791 794 793 794 792 791 790 786 784 786 790 792 791 793 791 787 785 783 782 783 781 779 778 777 778 778 777 777 778 776 773 769 767 765 764 764 764 763 764 763 763 762 761 761 762 762 763 763 763 762 764 765 765 766 767 766 766 767 768 768 769 771 772 772 773 774 775 775 775 776 777 777 778 778 778
780 780 777 775 776 779 782 782 784 787 788 790 794 796 795 792 792 794 791 789 790 793 794 794 795 792 788 786 784 780 779 778 776 775 775 776 776 776 774 774 775 772 769 765 762 761 761 761 761 761 761 761 761 760 760 760 760 760 760 760 760 761 762 762 763 763 763 764 766 767 767 769 770 770 771 772 772 772 771 771 772 772 772 773 773 773
780 781 778 776 777 779 783 785 785 788 790 791 794 797 795 793 795 795 795 795 794 795 794 795 797 792 785 786 784 777 775 775 774 774 775 774 774 774 773 772 772 770 767 764 761 758 757 758 759 759 760 760 760 760 760 760 760 759 759 759 759 759 760 760 761 761 762 764 765 766 767 768 768 768 769 769 767 766 766 767 767 767 767 769 769 770
781 780 778 779 780 780 784 787 787 788 791 793 793 793 793 793 795 795 797 799 800 801 798 798 803 792 780 783 782 775 775 775 775 775 775 773 771 772 772 769 767 765 764 764 763 760 757 756 757 758 759 760 761 761 761 761 760 760 759 759 758 758 759 759 759 759 760 761 762 764 764 764 764 764 764 763 761 760 761 762 762 763 764 766 766 767
782 780 779 781 782 783 785 787 787 787 792 795 790 787 788 790 793 794 798 804 808 807 802 801 805 796 783 782 780 776 777 776 775 774 773 772 770 769 768 765 763 762 761 762 762 761 758 757 758 759 760 761 762 761 760 760 759 759 758 758 758 758 758 758 758 759 759 759 759 760 760 760 760 760 758 757 756 757 758 759 760 761 762 763 764 764
783 782 781 782 784 786 788 789 788 786 791 794 789 787 788 789 792 793 797 806 809 808 806 802 805 807 797 785 778 775 776 776 774 773 771 768 767 766 765 763 762 761 760 760 760 760 760 761 762 762 761 762 761 760 759 759 758 757 757 756 756 756 756 755 756 756 756 757 757 756 756 756 757 756 755 754 755 756 757 757 758 758 759 760 761 761
785 783 782 782 786 791 790 788 786 785 789 792 790 789 789 790 792 793 797 804 805 807 810 805 805 811 801 784 778 777 777 777 775 772 768 765 765 765 763 762 761 760 760 762 763 764 764 765 765 764 762 762 761 759 759 758 757 756 755 754 753 753 753 753 752 752 752 753 753 753 753 753 753 753 752 752 753 754 755 755 755 756 756 757 758 758
787 785 785 783 784 788 788 786 785 785 788 791 790 790 791 794 796 798 801 803 805 807 806 803 804 805 794 778 777 782 780 776 773 769 767 764 764 763 762 761 761 762 763 766 767 768 768 768 767 766 764 762 761 760 759 758 757 755 754 753 752 751 751 750 749 749 749 749 750 750 750 750 750 750 750 751 751 752 752 752 753 753 754 754 755 755
786 786 787 785 785 786 786 788 790 789 789 790 790 790 792 796 798 802 804 803 806 807 798 796 799 800 796 782 774 776 775 771 768 767 767 764 763 762 762 763 765 767 768 768 769 770 770 769 768 767 766 764 763 762 760 758 757 755 754 752 751 750 749 748 747 747 747 747 747 747 747 747 747 747 748 748 748 749 749 749 749 750 750 751 751 752
786 785 787 787 788 788 786 789 793 793 792 791 791 792 795 799 799 803 805 805 811 806 794 792 795 800 802 787 772 770 769 768 768 767 767 765 763 763 765 768 771 772 772 772 772 772 771 770 770 769 768 767 765 762 761 759 757 755 753 752 750 749 748 747 746 746 745 745 745 744 744 744 744 744 745 745 745 745 745 745 746 746 747 747 748 748
789 787 789 789 787 787 786 789 793 795 794 793 795 797 801 805 806 806 806 808 810 803 793 792 794 800 798 781 772 769 765 767 768 768 768 766 765 767 771 774 775 775 775 775 775 774 774 774 773 772 771 769 767 764 762 760 759 757 755 753 751 750 750 749 747 746 744 744 744 743 743 743 743 743 743 743 743 742 742 743 743 744 744 744 744 745
794 790 790 788 786 785 785 788 791 794 795 796 796 799 804 810 817 814 807 807 808 799 795 796 798 801 791 773 770 769 764 765 768 768 768 767 769 772 775 777 777 777 778 778 778 777 777 777 776 775 773 771 769 766 764 762 761 759 757 755 753 752 751 750 748 747 745 744 743 743 742 742 742 742 742 742 742 741 741 741 741 741 741 741 741 741
795 792 788 787 786 785 784 785 787 789 795 797 794 796 801 804 809 810 804 806 807 800 799 801 801 799 786 772 771 769 765 769 773 772 771 771 774 776 777 778 778 779 780 780 780 779 779 778 777 776 774 773 771 769 766 765 763 761 759 757 756 754 752 751 750 748 747 745 744 743 741 741 741 740 740 740 740 740 740 740 740 740 740 739 739 739
796 791 787 790 791 786 784 785 786 788 794 799 798 798 801 797 796 801 802 803 804 805 805 802 798 790 776 768 769 769 769 774 777 776 774 776 778 778 778 780 781 781 782 781 781 780 779 779 778 776 775 774 772 771 769 767 765 763 761 759 757 756 754 752 751 749 747 746 744 743 742 741 740 739 739 739 738 739 739 739 739 738 738 738 737 737
800 794 791 793 791 788 789 788 788 789 790 798 803 800 800 798 794 799 804 803 805 809 803 795 793 788 778 772 769 770 774 777 780 780 779 781 780 780 781 783 784 784 784 784 783 782 780 779 778 777 776 775 773 772 771 769 768 766 764 762 759 757 754 753 752 750 748 746 745 744 743 742 741 739 739 738 737 737 737 737 737 736 736 736 736 736
796 792 792 794 789 790 795 790 790 793 791 796 802 798 798 800 797 800 806 807 813 815 800 789 792 790 788 783 771 770 777 780 783 783 782 783 782 783 786 787 787 787 785 785 783 783 782 780 779 778 777 777 775 774 773 771 769 767 765 764 761 758 756 754 752 751 750 748 746 744 743 742 741 740 739 738 737 737 736 735 735 734 734 734 734 734
795 790 792 797 794 792 795 791 791 796 794 793 796 795 796 799 799 804 809 809 813 813 799 790 793 789 787 783 773 773 781 783 785 784 782 784 786 788 791 790 790 788 786 786 784 784 784 782 782 780 778 777 776 775 774 772 770 768 766 764 762 760 757 755 754 751 750 748 746 745 743 741 740 739 738 737 736 736 735 734 733 733 732 732 732 732
799 792 792 796 796 794 793 791 793 797 796 794 795 797 798 799 799 803 808 808 807 808 801 795 796 790 784 784 782 783 786 784 783 783 785 790 791 792 793 793 792 791 790 789 788 787 787 786 785 784 783 781 779 777 775 773 771 769 767 765 762 760 757 755 753 751 749 747 746 744 742 741 740 738 737 736 734 734 733 733 732 731 731 730 730 730
798 791 792 796 797 795 794 796 797 795 796 796 797 800 801 800 802 803 806 807 805 805 805 803 801 789 780 785 787 785 786 786 785 787 791 793 794 794 795 794 794 794 793 793 792 791 791 789 789 788 787 785 783 781 779 776 774 771 769 767 765 762 759 756 754 752 750 748 746 744 742 740 739 737 736 735 734 733 732 731 730 730 730 729 729 728
799 795 796 799 798 794 797 807 809 803 800 799 799 802 802 800 803 807 808 808 807 806 806 808 805 788 778 783 786 785 790 792 792 794 795 795 795 796 797 796 796 796 797 798 798 797 796 794 793 791 789 787 785 783 781 779 776 773 771 769 767 765 762 760 757 755 752 749 747 745 743 741 739 737 736 734 733 732 731 731 730 729 729 728 728 727
805 802 800 801 802 802 807 815 819 814 805 801 803 805 804 802 805 809 809 808 810 810 808 812 809 790 780 786 790 791 795 795 795 798 799 799 799 798 799 800 800 802 803 803 803 802 801 800 798 795 793 791 789 787 784 782 780 777 775 772 769 766 764 762 760 757 755 752 749 746 744 742 740 738 737 735 733 731 730 729 728 728 727 727 726 725
805 806 804 803 804 806 810 812 814 812 804 802 807 808 807 807 807 810 811 810 814 813 808 814 812 792 783 791 794 793 796 797 798 801 802 804 804 804 805 805 806 808 808 807 806 805 804 802 800 798 796 795 794 791 789 787 784 781 778 775 772 769 766 763 761 758 756 753 751 748 746 743 742 740 738 736 734 732 730 728 726 726 725 725 724 724
806 809 807 805 807 807 807 805 805 805 806 809 812 813 813 810 810 813 813 814 817 810 804 813 811 790 782 789 792 792 794 796 800 804 806 810 811 811 812 812 812 812 811 810 809 807 805 803 802 801 800 798 797 794 792 790 788 785 782 779 776 772 769 766 762 759 757 754 752 749 747 745 743 741 739 737 735 734 731 728 726 724 723 723 722 722
810 817 814 808 808 808 807 809 812 813 816 817 814 815 817 815 816 816 814 817 817 807 807 816 809 791 786 789 792 797 800 801 805 810 812 815 818 818 817 818 817 816 815 814 812 810 808 806 805 804 802 801 799 797 794 792 789 787 784 781 778 775 771 767 764 761 758 756 753 751 749 747 745 743 741 738 736 734 732 730 727 724 722 721 720 720
815 823 826 819 813 811 812 818 824 824 822 820 816 818 822 821 819 817 817 822 821 817 818 818 810 803 796 793 800 811 814 814 817 818 817 820 823 822 822 821 820 818 817 815 814 812 810 809 807 806 805 803 801 799 796 793 791 788 784 781 779 776 772 769 766 763 760 758 755 753 750 748 746 744 742 739 737 734 732 730 728 725 722 720 718 717
814 821 832 831 822 824 826 825 827 829 826 824 822 823 827 827 825 823 825 824 825 831 827 812 811 812 800 799 818 829 827 826 826 824 824 825 826 825 824 822 820 818 817 816 815 814 812 810 809 807 806 804 802 800 798 795 793 789 786 783 779 776 773 770 766 763 761 758 756 754 752 749 747 744 742 739 737 734 731 729 727 725 722 720 717 715
820 824 836 836 827 829 831 827 829 831 829 828 828 829 831 832 830 830 830 826 827 834 825 811 815 817 807 816 835 838 834 834 831 828 828 827 826 825 823 822 821 820 819 817 816 815 814 813 811 809 807 804 802 800 797 795 793 790 787 784 780 777 773 770 767 764 761 759 756 754 752 749 747 744 742 739 736 733 730 728 726 724 722 720 717 714
826 829 838 837 830 829 829 829 833 834 833 833 833 833 833 832 832 833 832 829 830 829 821 818 823 821 823 837 842 836 837 837 832 830 829 827 827 826 824 824 823 822 821 819 817 816 815 814 812 811 809 806 803 800 797 794 791 789 787 784 781 777 774 770 767 765 762 759 757 754 752 749 746 743 740 738 736 733 730 727 725 723 721 719 717 714
828 833 839 839 834 832 831 832 835 836 837 837 834 832 833 832 832 832 831 830 831 828 824 826 826 824 833 843 841 836 837 835 831 831 829 828 829 828 827 826 824 823 822 820 819 817 815 813 812 810 808 807 805 803 800 796 792 789 786 783 781 778 775 772 769 766 763 761 758 755 752 749 746 743 740 737 735 732 729 726 723 721 719 717 715 713
833 836 840 839 837 839 839 836 834 835 835 832 830 830 831 830 828 826 824 825 827 826 824 826 828 832 840 842 838 837 837 834 834 832 829 828 828 828 828 827 825 824 822 820 819 818 816 814 812 810 808 806 804 802 800 797 794 790 787 784 781 778 775 773 771 768 765 762 759 755 752 749 745 742 740 737 734 731 728 725 722 720 718 716 714 712
841 840 842 843 844 847 845 838 835 837 830 821 823 829 828 826 826 824 823 827 832 831 828 830 836 842 844 842 838 837 836 835 834 832 830 828 827 828 829 827 826 825 822 821 819 817 816 815 813 811 809 806 804 802 800 797 794 791 788 785 782 779 776 773 771 768 765 763 760 756 752 749 745 743 740 737 735 731 728 725 722 720 718 716 714 712
842 841 843 846 847 846 844 840 838 835 825 818 824 832 830 827 828 830 833 839 843 841 839 840 843 845 843 841 840 838 836 834 833 831 829 826 825 828 828 826 826 823 821 820 819 817 816 814 812 811 808 806 805 802 799 797 794 790 787 785 782 779 777 773 770 768 765 762 760 756 752 749 746 743 740 738 735 731 728 725 722 720 719 717 715 713
844 843 846 849 849 845 844 844 837 827 821 823 828 832 832 830 831 836 843 849 848 845 845 846 846 844 843 842 841 838 834 832 831 829 826 824 825 827 827 825 824 821 820 819 817 816 815 812 811 809 807 805 803 801 799 796 793 790 786 783 781 777 775 773 769 767 764 762 759 756 753 749 745 742 740 737 734 731 728 726 723 721 719 717 715 713
846 846 848 849 848 846 848 847 834 824 826 828 828 831 833 832 832 836 840 846 849 847 847 848 846 844 843 840 837 835 832 829 828 826 824 823 825 827 826 824 822 820 819 817 815 814 813 811 810 808 806 804 802 800 798 795 793 789 785 782 780 777 774 771 768 765 763 761 759 756 752 749 745 741 739 736 734 731 729 726 724 721 719 716 714 712
847 847 849 850 847 847 852 848 837 832 835 834 834 837 838 837 838 837 836 842 850 849 847 847 846 843 841 838 836 834 831 827 826 825 824 825 826 826 825 823 822 820 818 816 814 813 811 810 809 807 805 803 801 799 797 794 792 789 785 782 780 777 774 770 767 765 762 760 758 755 752 748 744 740 737 735 732 730 727 725 723 721 719 716 713 710
846 845 846 845 843 846 852 851 847 845 843 841 842 842 839 838 839 839 837 842 850 850 846 847 847 844 842 841 839 837 834 831 827 826 826 826 826 826 824 823 821 819 816 814 812 810 809 808 806 805 803 801 799 798 796 793 791 788 785 782 779 776 773 770 767 764 761 759 756 753 750 748 744 741 737 734 731 728 725 723 721 719 717 715 712 709
847 846 844 844 842 843 846 847 846 843 841 844 845 841 838 836 836 839 840 842 849 852 848 847 849 847 845 845 843 840 840 836 829 825 827 828 827 826 824 821 819 818 815 812 810 808 806 805 803 802 801 799 797 796 794 792 790 787 784 781 779 776 773 769 767 764 761 758 755 752 749 746 743 740 736 733 731 728 725 722 720 718 716 715 712 709
847 844 844 846 843 841 841 842 839 833 836 846 847 841 838 835 836 841 840 840 847 852 849 849 850 848 846 846 844 843 844 840 830 824 826 828 826 824 823 820 817 815 813 811 809 807 804 803 802 800 798 797 795 793 792 790 787 785 783 780 778 775 772 769 766 763 760 757 754 751 748 744 741 739 736 733 730 727 724 721 719 717 715 714 712 709
857 853 852 852 849 846 845 845 843 837 839 846 845 841 839 835 837 842 842 843 849 850 848 849 849 847 845 845 844 842 841 838 832 826 825 826 824 822 819 817 815 813 811 808 806 805 803 801 800 798 796 795 793 791 790 788 785 783 781 779 776 773 771 768 765 762 759 755 752 749 746 743 740 737 734 732 729 726 723 720 717 716 714 712 711 709
860 859 859 858 856 856 855 854 852 845 844 847 844 840 840 838 840 844 845 847 850 848 847 848 847 846 845 843 842 841 836 833 831 827 824 823 822 820 817 814 812 810 809 807 804 803 802 800 798 797 794 793 792 790 788 786 783 781 779 777 775 772 769 767 764 761 758 754 751 747 744 741 739 736 733 730 727 725 721 718 716 714 712 711 709 708
850 852 855 856 856 859 861 861 854 844 843 847 844 841 844 845 846 846 846 847 847 846 847 846 844 845 844 840 839 838 834 831 829 826 823 821 819 817 815 812 810 807 805 804 803 802 801 799 797 795 792 791 790 788 787 785 782 779 777 776 773 771 768 766 762 759 756 752 749 746 743 740 737 735 732 729 726 724 720 717 715 712 710 709 707 705
849 849 851 851 850 852 853 850 843 839 843 846 844 844 847 847 846 846 846 847 846 845 845 844 843 843 842 840 838 835 833 830 827 824 822 819 816 815 813 810 808 805 803 802 801 801 800 798 796 794 791 790 788 787 785 783 781 778 776 774 772 770 767 764 761 758 754 750 747 744 742 739 736 733 731 728 725 723 719 717 714 711 708 706 705 703
847 848 848 848 847 847 846 840 838 841 845 845 844 845 846 844 844 845 845 846 845 844 844 843 841 840 840 839 837 834 831 829 826 824 822 818 815 814 811 808 806 803 802 801 800 799 798 796 795 793 790 788 787 785 784 782 780 778 775 773 771 768 766 763 760 757 753 749 746 743 740 737 735 732 729 727 724 722 719 716 713 710 707 705 703 702
850 853 851 849 849 847 843 839 839 842 843 843 844 844 844 843 843 843 843 843 843 842 842 842 840 839 839 839 838 835 832 828 826 823 821 818 815 812 809 808 806 803 802 800 798 797 796 795 793 792 789 787 785 784 782 780 779 777 774 772 770 767 765 762 758 755 752 749 745 742 739 736 733 731 728 726 723 721 718 716 713 709 706 704 702 700
852 854 852 850 850 848 843 839 840 842 841 842 842 841 841 841 841 841 841 842 841 841 841 841 841 840 839 838 838 836 832 829 826 822 819 816 814 810 808 807 805 803 801 799 797 796 795 794 792 790 788 786 784 782 781 779 778 776 773 771 769 767 764 761 757 754 751 748 745 741 738 735 732 729 727 724 722 720 717 715 713 710 706 703 701 699
850 853 851 848 847 847 843 839 840 841 840 840 841 841 840 839 840 841 841 841 840 841 841 841 841 840 838 837 836 835 832 829 826 822 819 816 814 811 809 807 804 803 801 799 797 796 795 794 792 790 788 786 783 782 780 778 776 775 773 770 768 766 763 759 756 754 751 747 745 741 738 736 732 729 726 723 721 719 716 714 711 709 705 703 700 698
849 851 847 845 846 847 845 840 839 840 839 838 839 839 839 839 839 841 841 840 840 840 840 839 839 839 838 836 835 834 831 828 826 823 820 817 815 813 810 808 805 803 800 798 797 796 795 794 792 790 788 786 783 781 779 777 776 774 772 769 767 765 761 758 755 753 750 747 744 741 738 735 732 729 726 723 720 718 715 713 711 708 704 702 700 699
850 846 843 845 848 847 843 839 837 839 839 838 837 837 837 838 839 840 840 840 840 839 839 838 837 836 836 835 834 833 830 827 825 824 821 819 816 814 811 809 806 803 801 799 797 795 795 793 792 790 788 785 783 781 778 776 775 773 771 769 766 764 761 757 754 752 749 746 744 741 738 735 732 729 726 723 720 716 713 711 710 708 705 701 699 698
842 839 838 841 841 837 834 834 835 837 837 836 835 835 836 837 838 839 839 839 839 838 838 838 836 835 833 832 832 831 829 827 826 824 821 819 816 814 812 810 807 804 801 799 797 795 794 792 790 789 786 784 782 780 778 776 774 772 770 768 766 763 760 757 754 751 748 746 743 741 738 735 732 729 726 723 720 717 713 709 706 705 704 701 699 697